Weather History for Gainesville, GA

Change the Weather History Date:

Sunday, September 2, 2012

  Actual Average Record
Temperature  
Mean Temperature 79 °F 76 °F  
Max Temperature 87 °F 85 °F 102 °F (1957)
Min Temperature 72 °F 67 °F 53 °F (1936)
Degree Days  
Heating Degree Days 0 0  
Month to date heating degree days 0  
Since 1 July heating degree days 0  
Cooling Degree Days 14 11  
Month to date cooling degree days 22  
Year to date cooling degree days 1348  
Growing Degree Days 29 (Base 50)    
Moisture  
Dew Point 71 °F    
Average Humidity 82    
Maximum Humidity 97    
Minimum Humidity 57    
Precipitation  
Precipitation 0.24 in 0.13 in 2.15 in (1971)
Month to date precipitation 0.25  
Year to date precipitation 36.50  
Sea Level Pressure  
Sea Level Pressure 30.03 in    
Wind  
Wind Speed 4 mph (SSW)    
Max Wind Speed 10 mph    
Max Gust Speed 20 mph    
Visibility 9 miles    
Events Rain , Thunderstorm    
T = Trace of Precipitation, MM = Missing Value Source: NWS Daily Summary

Daily Weather History Graph

Daily Weather History Graph

Search for Another Location

Airport:

Trip Planner

Search our weather history database for the weather conditions in past years. The results will help you decide how hot, cold, wet, or windy it might be!

Date:

Astronomy

Sep. 02, 2012 Rise Set
Actual Time 7:09 AM EDT 7:59 PM EDT
Civil Twilight 6:44 AM EDT 8:24 PM EDT
Nautical Twilight 6:13 AM EDT 8:54 PM EDT
Astronomical Twilight 5:42 AM EDT 9:25 PM EDT
Moon 8:56 PM EDT (9/2) 9:08 AM EDT (9/2)
Length of Visible Light 13h 40m
Length of Day
12h 49m
Waning Gibbous, 95% of the Moon is Illuminated
Sep 2
Waning Gibbous
Sep 8
Last Quarter
Sep 15
New
Sep 22
First Quarter
Sep 29
Full

Hourly Weather History & Observations

Time (EDT) Temp. Heat Index Dew Point Humidity Pressure Visibility Wind Dir Wind Speed Gust Speed Precip Events Conditions
12:53 AM 75.0 °F - 71.1 °F 87% 30.09 in 10.0 mi Calm Calm - N/A   Clear
1:53 AM 73.9 °F - 71.1 °F 91% 30.08 in 10.0 mi Calm Calm - N/A   Clear
2:53 AM 75.0 °F - 72.0 °F 90% 30.07 in 10.0 mi Calm Calm - N/A   Clear
3:53 AM 73.9 °F - 72.0 °F 93% 30.05 in 10.0 mi Calm Calm - N/A   Clear
4:53 AM 73.0 °F - 71.1 °F 93% 30.05 in 10.0 mi Calm Calm - N/A   Clear
5:53 AM 72.0 °F - 71.1 °F 97% 30.04 in 8.0 mi Calm Calm - N/A   Clear
6:53 AM 72.0 °F - 70.0 °F 93% 30.05 in 10.0 mi WSW 3.5 mph - N/A   Clear
7:53 AM 73.9 °F - 71.1 °F 91% 30.06 in 10.0 mi Calm Calm - N/A   Clear
9:53 AM 80.1 °F 83.6 °F 71.1 °F 74% 30.08 in 10.0 mi West 10.4 mph - N/A   Overcast
10:53 AM 80.1 °F 83.2 °F 70.0 °F 71% 30.08 in 10.0 mi WNW 5.8 mph - N/A   Scattered Clouds
11:53 AM 82.0 °F 85.5 °F 69.1 °F 65% 30.06 in 10.0 mi West 8.1 mph - N/A   Partly Cloudy
12:53 PM 84.0 °F 88.4 °F 70.0 °F 63% 30.04 in 10.0 mi West 9.2 mph 16.1 mph N/A   Partly Cloudy
1:32 PM 86.0 °F 90.4 °F 69.8 °F 58% 30.07 in 10.0 mi West 9.2 mph - N/A Thunderstorm Partly Cloudy
1:53 PM 86.0 °F 90.1 °F 69.1 °F 57% 30.02 in 10.0 mi West 9.2 mph - N/A Thunderstorm Scattered Clouds
2:17 PM 86.0 °F 90.4 °F 69.8 °F 58% 30.07 in 10.0 mi SSW 9.2 mph - N/A Thunderstorm Mostly Cloudy
2:38 PM 78.8 °F - 69.8 °F 74% 30.06 in 10.0 mi SE 10.4 mph - N/A   Mostly Cloudy
2:53 PM 79.0 °F - 71.1 °F 77% 30.01 in 10.0 mi SSE 10.4 mph - N/A   Mostly Cloudy
3:53 PM 82.0 °F 86.3 °F 71.1 °F 69% 29.98 in 10.0 mi South 9.2 mph - 0.00 in   Clear
4:53 PM 82.9 °F 88.8 °F 73.0 °F 72% 29.96 in 10.0 mi Variable 6.9 mph - N/A   Clear
5:53 PM 80.1 °F 84.2 °F 73.0 °F 79% 29.95 in 10.0 mi SSE 4.6 mph - N/A   Mostly Cloudy
6:16 PM 75.2 °F - 69.8 °F 83% 30.01 in 2.0 mi SSW 9.2 mph 19.6 mph 0.08 in Rain Heavy Rain
6:18 PM 73.4 °F - 69.8 °F 88% 30.01 in 1.5 mi SW 9.2 mph 19.6 mph 0.13 in Rain Heavy Rain
6:29 PM 73.4 °F - 69.8 °F 88% 30.01 in 2.5 mi SSE 6.9 mph - 0.19 in Rain Light Rain
6:36 PM 73.4 °F - 71.6 °F 94% 30.01 in 3.0 mi SE 5.8 mph - 0.23 in Rain Heavy Rain
6:53 PM 75.0 °F - 72.0 °F 90% 29.96 in 10.0 mi SE 5.8 mph - 0.24 in   Mostly Cloudy
7:53 PM 75.0 °F - 73.0 °F 94% 29.97 in 10.0 mi SE 4.6 mph - N/A   Clear
8:53 PM 75.0 °F - 71.1 °F 87% 29.98 in 10.0 mi Calm Calm - N/A   Clear
9:53 PM 73.9 °F - 72.0 °F 93% 29.98 in 10.0 mi SSE 3.5 mph - N/A   Clear
10:53 PM 75.0 °F - 72.0 °F 90% 29.98 in 10.0 mi Calm Calm - N/A   Clear
11:53 PM 73.9 °F - 72.0 °F 93% 29.98 in 10.0 mi WSW 3.5 mph - N/A   Mostly Cloudy